Location: Br�ttisellen
(47.4227°N, 8.6287°E)
Time: 11:04:50
(UTC+00:00)

MOS 1 Rocket - Pass Details

Date: 09 April 2020
Orbit: 615 x 830 km, 97.4° (Epoch: 24 May)

Event Time Altitude Azimuth Distance (km) Brightness Sun altitude
Rises 19:14:59 0° 17° (NNE) 3,350 6.9 -11.7°
Reaches altitude 10° 19:17:25 10° 23° (NNE) 2,429 6.1 -12.0°
Maximum altitude 19:22:40 48° 98° (E) 1,072 3.9 -12.8°
Drops below altitude 10° 19:27:54 10° 172° (S) 2,424 5.7 -13.6°
Sets 19:30:19 0° 178° (S) 3,342 6.5 -14.0°
